Change the Weather History Date:

Saturday, October 6, 2012

  Actual Average Record
Temperature  
Mean Temperature 42 °F -  
Max Temperature 47 °F 65 °F 89 °F (1963)
Min Temperature 36 °F 43 °F 26 °F (1966)
Degree Days  
Heating Degree Days 24    
Moisture  
Dew Point 36 °F    
Average Humidity 80    
Maximum Humidity 93    
Minimum Humidity 60    
Precipitation  
Precipitation 0.00 in - - ()
Sea Level Pressure  
Sea Level Pressure 30.07 in    
Wind  
Wind Speed 6 mph (WSW)    
Max Wind Speed 16 mph    
Max Gust Speed 22 mph    
Visibility 10 miles    
Events Rain    
Averages and records for this station are not official NWS values.
T = Trace of Precipitation, MM = Missing Value Source: NWS Daily Summary

Daily Weather History Graph

Daily Weather History Graph

Search for Another Location

Airport or City:

Trip Planner

Search our weather history database for the weather conditions in past years. The results will help you decide how hot, cold, wet, or windy it might be!

Date:

Astronomy

Oct. 06, 2012 Rise Set
Actual Time 7:45 AM EDT 7:14 PM EDT
Civil Twilight 7:17 AM EDT 7:42 PM EDT
Nautical Twilight 6:45 AM EDT 8:14 PM EDT
Astronomical Twilight 6:12 AM EDT 8:47 PM EDT
Moon 11:25 PM EDT (10/6) 1:43 PM EDT (10/6)
Length of Visible Light 12h 25m
Length of Day
11h 29m
Waning Gibbous, 65% of the Moon is Illuminated
Oct 6
Waning Gibbous
Oct 8
Last Quarter
Oct 15
New
Oct 21
First Quarter
Oct 29
Full

Hourly Weather History & Observations

Time (EDT) Temp. Windchill Dew Point Humidity Pressure Visibility Wind Dir Wind Speed Gust Speed Precip Events Conditions
12:14 AM 41.9 °F 38.2 °F 38.7 °F 88% 30.01 in 10.0 mi WSW 5.8 mph - N/A   Scattered Clouds
12:34 AM 41.4 °F 38.4 °F 38.3 °F 89% 30.01 in 10.0 mi SW 4.6 mph - N/A   Scattered Clouds
12:53 AM 41.0 °F 39.0 °F 37.6 °F 88% 30.01 in 10.0 mi WSW 3.5 mph - N/A   Clear
1:14 AM 40.5 °F 38.4 °F 37.4 °F 89% 30.00 in 10.0 mi SW 3.5 mph - N/A   Scattered Clouds
1:34 AM 39.7 °F 37.6 °F 36.9 °F 89% 30.00 in 10.0 mi SW 3.5 mph - N/A   Mostly Cloudy
1:53 AM 39.7 °F 37.6 °F 37.4 °F 91% 30.00 in 10.0 mi SW 3.5 mph - N/A   Mostly Cloudy
2:14 AM 39.6 °F 36.3 °F 37.0 °F 91% 30.01 in 10.0 mi SW 4.6 mph - N/A   Scattered Clouds
2:54 AM 40.1 °F 36.9 °F 37.4 °F 90% 30.00 in 10.0 mi SW 4.6 mph - N/A   Mostly Cloudy
3:14 AM 39.7 °F 37.6 °F 37.0 °F 90% 30.00 in 10.0 mi SW 3.5 mph - N/A   Mostly Cloudy
3:34 AM 39.6 °F 35.4 °F 36.9 °F 90% 29.99 in 10.0 mi SW 5.8 mph - N/A   Mostly Cloudy
3:54 AM 39.0 °F 34.0 °F 36.3 °F 90% 29.99 in 10.0 mi SW 6.9 mph - N/A   Scattered Clouds
4:13 AM 38.5 °F 33.4 °F 35.8 °F 90% 29.99 in 10.0 mi SW 6.9 mph - N/A   Clear
4:34 AM 38.5 °F 34.1 °F 35.8 °F 90% 29.99 in 10.0 mi SW 5.8 mph - N/A   Clear
4:54 AM 37.9 °F 33.5 °F 35.2 °F 90% 29.99 in 10.0 mi SW 5.8 mph - N/A   Clear
5:34 AM 37.9 °F 32.7 °F 35.2 °F 90% 29.99 in 10.0 mi SW 6.9 mph - N/A   Clear
5:54 AM 37.0 °F 31.6 °F 34.5 °F 91% 30.00 in 10.0 mi SSW 6.9 mph - N/A   Clear
6:13 AM 36.5 °F 32.7 °F 34.2 °F 91% 30.00 in 10.0 mi SSW 4.6 mph - N/A   Clear
6:34 AM 36.5 °F 31.0 °F 34.3 °F 92% 30.00 in 10.0 mi SW 6.9 mph - N/A   Clear
6:54 AM 36.1 °F 32.3 °F 34.2 °F 93% 30.02 in 10.0 mi WSW 4.6 mph - N/A   Scattered Clouds
7:13 AM 36.9 °F 34.3 °F 34.7 °F 92% 30.02 in 10.0 mi SW 3.5 mph - N/A   Mostly Cloudy
7:34 AM 37.0 °F 32.4 °F 34.9 °F 92% 30.03 in 10.0 mi SSW 5.8 mph - N/A   Overcast
7:54 AM 36.5 °F 31.8 °F 34.5 °F 93% 30.04 in 10.0 mi SSW 5.8 mph - N/A   Mostly Cloudy
8:14 AM 37.4 °F 32.1 °F 35.2 °F 92% 30.04 in 10.0 mi SSW 6.9 mph - N/A   Overcast
8:34 AM 37.9 °F 33.5 °F 35.8 °F 92% 30.05 in 10.0 mi SSW 5.8 mph - N/A   Overcast
8:53 AM 38.7 °F 35.2 °F 36.3 °F 91% 30.05 in 10.0 mi SW 4.6 mph - N/A   Overcast
9:14 AM 40.5 °F 37.3 °F 37.6 °F 89% 30.05 in 10.0 mi SSW 4.6 mph - N/A   Overcast
9:34 AM 43.9 °F 38.8 °F 37.4 °F 78% 30.05 in 10.0 mi West 9.2 mph - N/A   Overcast
9:53 AM 44.6 °F 38.8 °F 35.2 °F 70% 30.05 in 10.0 mi WNW 11.5 mph 18.4 mph N/A   Overcast
10:14 AM 46.4 °F 40.4 °F 34.9 °F 64% 30.05 in 10.0 mi WNW 13.8 mph 20.7 mph N/A   Scattered Clouds
10:34 AM 46.6 °F - 34.9 °F 64% 30.06 in 10.0 mi West 13.8 mph 18.4 mph N/A   Mostly Cloudy
10:53 AM 46.2 °F 40.8 °F 33.3 °F 61% 30.07 in 10.0 mi WNW 11.5 mph 21.9 mph N/A   Overcast
11:14 AM 46.2 °F 39.5 °F 32.9 °F 60% 30.07 in 10.0 mi WNW 16.1 mph 21.9 mph N/A   Overcast
11:33 AM 45.7 °F 39.5 °F 33.4 °F 62% 30.07 in 10.0 mi WNW 13.8 mph - N/A   Overcast
11:54 AM 46.8 °F - 34.0 °F 61% 30.07 in 10.0 mi West 10.4 mph - N/A   Overcast
12:14 PM 46.0 °F 40.2 °F 34.2 °F 63% 30.08 in 10.0 mi West 12.7 mph 21.9 mph N/A   Overcast
12:33 PM 47.3 °F - 34.2 °F 60% 30.08 in 7.0 mi West 13.8 mph 21.9 mph N/A   Overcast
12:54 PM 46.6 °F - 33.6 °F 61% 30.09 in 10.0 mi West 13.8 mph 17.3 mph N/A   Overcast
1:13 PM 45.7 °F 40.2 °F 33.8 °F 63% 30.09 in 10.0 mi West 11.5 mph - N/A   Overcast
1:34 PM 45.5 °F 40.8 °F 33.4 °F 63% 30.10 in 10.0 mi West 9.2 mph 17.3 mph N/A   Overcast
1:54 PM 45.9 °F 40.8 °F 33.4 °F 62% 30.10 in 10.0 mi West 10.4 mph - N/A   Overcast
2:13 PM 45.5 °F 40.3 °F 33.4 °F 63% 30.10 in 10.0 mi West 10.4 mph - N/A   Overcast
2:34 PM 45.7 °F 40.6 °F 33.4 °F 62% 30.10 in 10.0 mi West 10.4 mph - N/A   Overcast
2:54 PM 45.5 °F 39.2 °F 33.1 °F 62% 30.10 in 10.0 mi West 13.8 mph 18.4 mph N/A   Overcast
3:14 PM 45.1 °F 39.9 °F 34.0 °F 65% 30.10 in 10.0 mi West 10.4 mph 18.4 mph N/A   Overcast
3:34 PM 46.2 °F 40.1 °F 34.7 °F 64% 30.10 in 10.0 mi West 13.8 mph 19.6 mph N/A   Overcast
3:54 PM 45.5 °F 40.3 °F 34.9 °F 66% 30.10 in 10.0 mi West 10.4 mph 18.4 mph N/A   Overcast
4:14 PM 44.8 °F 41.0 °F 35.2 °F 69% 30.10 in 10.0 mi WNW 6.9 mph - N/A   Overcast
4:34 PM 44.6 °F 40.2 °F 36.5 °F 73% 30.09 in 10.0 mi WNW 8.1 mph - N/A Rain Light Rain
4:53 PM 45.3 °F 41.6 °F 36.9 °F 72% 30.09 in 10.0 mi West 6.9 mph - N/A   Overcast
5:14 PM 45.7 °F 42.7 °F 36.1 °F 69% 30.09 in 10.0 mi West 5.8 mph - N/A   Overcast
5:34 PM 45.5 °F 43.2 °F 36.0 °F 69% 30.10 in 10.0 mi WNW 4.6 mph - N/A   Overcast
5:53 PM 45.0 °F 40.6 °F 36.0 °F 71% 30.11 in 10.0 mi West 8.1 mph - N/A   Overcast
6:14 PM 44.4 °F 42.0 °F 37.8 °F 77% 30.11 in 10.0 mi WNW 4.6 mph - N/A Rain Light Rain
6:34 PM 44.4 °F 42.0 °F 38.3 °F 79% 30.12 in 10.0 mi NW 4.6 mph - N/A Rain Rain
6:53 PM 43.3 °F - 38.3 °F 82% 30.12 in 10.0 mi Calm Calm - N/A   Light Drizzle
7:14 PM 43.0 °F - 39.2 °F 86% 30.12 in 10.0 mi Calm Calm - N/A   Overcast
7:34 PM 43.0 °F - 39.6 °F 88% 30.12 in 10.0 mi Calm Calm - N/A   Overcast
7:54 PM 43.0 °F - 39.2 °F 86% 30.12 in 10.0 mi Calm Calm - N/A   Overcast
8:14 PM 43.2 °F - 38.8 °F 85% 30.13 in 10.0 mi Calm Calm - N/A   Overcast
8:34 PM 43.2 °F - 37.6 °F 81% 30.13 in 10.0 mi Calm Calm - N/A   Overcast
8:54 PM 43.9 °F - 38.1 °F 80% 30.13 in 10.0 mi Calm Calm - N/A   Overcast
9:14 PM 43.2 °F - 38.8 °F 85% 30.14 in 10.0 mi Calm Calm - N/A   Overcast
9:34 PM 43.0 °F - 39.4 °F 87% 30.14 in 10.0 mi Calm Calm - N/A   Overcast
9:54 PM 43.0 °F - 39.2 °F 86% 30.14 in 10.0 mi Calm Calm - N/A   Overcast
10:14 PM 43.2 °F - 39.4 °F 86% 30.14 in 10.0 mi Calm Calm - N/A   Overcast
10:34 PM 43.2 °F - 39.4 °F 86% 30.14 in 10.0 mi Calm Calm - N/A   Overcast
10:54 PM 42.8 °F - 39.4 °F 88% 30.14 in 10.0 mi Calm Calm - N/A   Overcast
11:13 PM 42.8 °F - 39.6 °F 88% 30.14 in 10.0 mi Calm Calm - N/A   Overcast
11:34 PM 42.8 °F - 39.6 °F 88% 30.14 in 10.0 mi Calm Calm - N/A   Overcast
11:54 PM 42.6 °F - 39.4 °F 88% 30.14 in 10.0 mi Calm Calm - N/A   Overcast